This is the latest recevied weather packets stored in our database for station/object KD9NSC. If no packets are shown the sender has not sent any weather packets the latest 10 day(s).
| Time | Temp. | Humidity | Pressure | Rain* | Wind** | Luminosity | Snow |
|---|---|---|---|---|---|---|---|
| 1777752730 | 10.56° C | 45% | 1020.2 hPa | 0 mm | - | 41 W/m² | - |
| 1777752426 | 10.56° C | 44% | 1020.3 hPa | 0 mm | - | 280 W/m² | - |
| 1777752123 | 10.56° C | 44% | 1020.4 hPa | 0 mm | - | 218 W/m² | - |
| 1777751821 | 10.56° C | 45% | 1020.4 hPa | 0 mm | - | 212 W/m² | - |
| 1777751517 | 10° C | 45% | 1020.5 hPa | 0 mm | - | 113 W/m² | - |
| 1777751214 | 10° C | 46% | 1020.6 hPa | 0 mm | - | 56 W/m² | - |
| 1777750911 | 10° C | 46% | 1020.6 hPa | 0 mm | - | 76 W/m² | - |
| 1777750607 | 10° C | 48% | 1020.7 hPa | 0 mm | - | 23 W/m² | - |
| 1777750304 | 10° C | 47% | 1020.8 hPa | 0 mm | - | 92 W/m² | - |
| 1777750000 | 9.44° C | 49% | 1020.8 hPa | 0 mm | - | 177 W/m² | - |
| 1777749697 | 9.44° C | 45% | 1021 hPa | 0 mm | - | 189 W/m² | - |
| 1777749394 | 8.89° C | 45% | 1021 hPa | 0 mm | - | 22 W/m² | - |
| 1777749092 | 9.44° C | 45% | 1021.1 hPa | 0 mm | - | 70 W/m² | - |
| 1777748789 | 10° C | 45% | 1021.3 hPa | 0 mm | - | 109 W/m² | - |
| 1777748487 | 10.56° C | 44% | 1021.2 hPa | 0 mm | - | 154 W/m² | - |
| 1777748181 | 10.56° C | 47% | 1021.3 hPa | 0 mm | - | 41 W/m² | - |
| 1777747878 | 10° C | 47% | 1021.4 hPa | 0 mm | - | 23 W/m² | - |
| 1777747574 | 10° C | 45% | 1021.4 hPa | 0 mm | - | 24 W/m² | - |
| 1777747270 | 10.56° C | 49% | 1021.4 hPa | 0 mm | - | 24 W/m² | - |
| 1777746966 | 10.56° C | 48% | 1021.4 hPa | 0 mm | - | 25 W/m² | - |
| 1777746663 | 10.56° C | 45% | 1021.4 hPa | 0 mm | - | 36 W/m² | - |
| 1777746358 | 10° C | 45% | 1021.5 hPa | 0 mm | - | 174 W/m² | - |
| 1777746054 | 10° C | 50% | 1021.4 hPa | 0 mm | - | 201 W/m² | - |
| 1777745751 | 9.44° C | 48% | 1021.5 hPa | 0 mm | - | 116 W/m² | - |
| 1777745450 | 10° C | 48% | 1021.8 hPa | 0 mm | - | 94 W/m² | - |
* Rain latest hour (hover to see other rain measurements)
** Current wind speed in m/s (hover to see current wind gust speed)